Probability
0 0 0 0 0 0 0 0 0 0 0 0 0 0 0 0 0 0 0 0 0 0 0 0 0 0 0 0 0 0 0 0 0 0 0 0 0 0
0 0 0 0 0 0 0 0 0 0 0 0 0 0 0 0 0 0 0 0 0 0 0 0 0 0 0 0 0 0 0 0 0 0 0 0 0 0
0 0 0 0 0 0 0 0 0 0 0 0 0 0 0 0 0 0 0 0 0 0 0 0 0 0 0 0 0 0 0 0 0 0 0 0 0 0
0 0 0 0 0 0 0 0 0 0 0 0 0 0 0 0 0 0 0 0 0 0 0 0 0 0 0 0 0 0 0 0 0 0 0 0 0 0
0 0 0 0 0 0 0 0 0 0 0 0 0 0 0 0 0 0 0 0 0 0 0 0 0 0 0 0 0 0 0 0 0 0 0 0 0 0
0 0 0 0 0 0 0 0 0 0 0 0 0 0 0 0 0 0 0 0 0 0 0 0 0 0 0 0 0 0 0 0 0 0 0 0 0 0
0 0 0 0 0 0 0 0 0 0 0 0 0 0 0 0 0 0 0 0 0 0 0 0 0 0 0 0 0 0 0 0 0 0 0 0 0 0
0 0 0 0 0 0 0 0 0 0 0 0 0 0 0 0 0 0 0 0 0 0 0 0 0 0 0 0 0 0 0 0 0 0 0 0 0 0
0 0 0 0 0 0 0 0 0 0 0 0 0 0 0 0 0 0 0 0 0 0 0 0 0 0 0 0 0 0 0 0 0 0 0 0 0 0
0 0 0 0 0 0 0 0 0 0 0 0 0 0 0 0 0 0 0 0 0 0 0 0 0 0 0 0 0 0 0 0 0 0 0 0 0 0
0 0 0 0 0 0 0 0 0 0 0 0 0 0 0 0 0 0 0 0 0 0 0 0 0 0 0 0 0 0 0 0 0 0 0 0 0 0
0 0 0 0 0 0 0 0 0 0 0 0 0 0 0 0 0 0 0 0 0 0 0 0 0 0 0 0 0 0 0 0 0 0 0 0 0 0
0 0 0 0 0 0 0 0 0 0 0 0 0 0 0 0 0 0 0 0 0 0 0 0 0 0 0 0 0 0 0 0 0 0 0 0 0 0
0 0 0 0 0 0 0 0 0 0 0 0 0 0 0 0 0 0 0 0 0 0 0 0 0 0 0 0 0 0 0 0 0 0 0 0 0 0
0 0 0 0 0 0 0 0 0 0 0 0 0 0 0 0 0 0 0 0 0 0 0 0 0 0 0 0 0 0 0 0 0 0 0 0 0 0
0 0 0 0 0 0 0 0 0 0 0 0 0 0 0 0 0 0 0 0 0 0 0 0 0 0 0 0 0 0 0 0 0 0 0 0 0 0
0 0 0 0 0 0 0 0 0 0 0 0 0 0 0 0 0 0 0 0 0 0 0 0 0 0 0 0 0 0 0 0 0 0 0 0 0 0
0 0 0 0 0 0 0 0 0 0 0 0 0 0 0 0 0 0 0 0 0 0 0 0 0 0 0 0 0 0 0 0 0 0 0 0 0 0
0 0 0 0 0 0 0 0 0 0 0 0 0 0 0 0 0 0 0 0 0 0 0 0 0 0 0 0 0 0 0 0 0 0 0 0 0 0
0 0 0 0 0 0 0 0 0 0 0 0 0 0 0 0 0 0 0 0 0 0 0 0 0 0 0 0 0 0 0 0 0 0 0 0 0 0
0 0 0 0 0 0 0 0 0 0 0 0 0 0 0 0 0 0 0 0 0 0 0 0 0 0 0 0 0 0 0 0 0 0 0 0 0 0
0 0 0 0 0 0 0 0 0 0 0 0 0 0 0 0 0 0 0 0 0 0 0 0 0 0 0 0 0 0 0 0 0 0 0 0 0 0
0 0 0 0 0 0 0 0 0 0 0 0 0 0 0 0 0 0 0 0 0 0 0 0 0 0 0 0 0 0 0 0 0 0 0 0 0 0
Height
5551 5550 5550 5550 5550 5551 5552 5553 5556 5560 5568 5573 5575 5577 5579 5582 5585 5588 5592 5596 5599 5604 5608 5611 5614 5618 5621 5624 5626 5628 5629 5631 5631 5631 5631 5631 5630 5628
5536 5535 5535 5535 5536 5537 5537 5538 5540 5543 5549 5557 5560 5561 5563 5566 5569 5573 5577 5580 5584 5588 5592 5596 5600 5603 5607 5610 5612 5615 5616 5618 5619 5619 5619 5618 5617 5616
5521 5520 5521 5521 5522 5523 5523 5524 5527 5528 5533 5541 5544 5546 5548 5551 5555 5558 5562 5565 5569 5574 5578 5582 5585 5589 5593 5596 5599 5602 5603 5605 5606 5607 5607 5606 5605 5605
5506 5505 5506 5506 5507 5508 5508 5510 5512 5515 5518 5523 5529 5532 5535 5538 5541 5544 5547 5551 5556 5560 5564 5568 5572 5576 5580 5583 5586 5589 5591 5593 5595 5596 5596 5595 5594 5593
5491 5491 5491 5491 5492 5493 5494 5496 5498 5501 5504 5508 5514 5518 5521 5524 5527 5531 5534 5538 5542 5546 5551 5555 5559 5563 5567 5571 5574 5577 5580 5582 5584 5585 5584 5584 5583 5582
5477 5476 5477 5477 5478 5478 5480 5482 5485 5488 5491 5495 5500 5505 5508 5511 5514 5518 5522 5526 5530 5534 5539 5543 5548 5552 5556 5560 5563 5566 5569 5571 5573 5574 5574 5574 5574 5572
5463 5463 5463 5463 5463 5464 5466 5469 5471 5474 5478 5482 5487 5492 5496 5499 5503 5506 5511 5515 5519 5523 5528 5533 5537 5542 5545 5549 5552 5556 5559 5561 5563 5564 5565 5565 5564 5563
5450 5450 5450 5450 5450 5451 5453 5455 5457 5461 5466 5470 5475 5480 5485 5489 5493 5496 5500 5505 5509 5514 5518 5523 5527 5532 5536 5540 5543 5546 5549 5551 5553 5554 5555 5555 5555 5554
5438 5438 5438 5439 5439 5440 5441 5443 5446 5449 5453 5458 5463 5469 5474 5478 5483 5487 5490 5495 5500 5505 5509 5514 5518 5523 5527 5530 5534 5537 5540 5542 5544 5545 5546 5546 5545 5545
5428 5427 5428 5429 5429 5429 5431 5433 5436 5439 5443 5447 5452 5458 5463 5469 5473 5477 5481 5486 5491 5496 5501 5507 5511 5515 5518 5522 5525 5528 5531 5533 5535 5536 5537 5537 5536 5535
5419 5418 5418 5419 5420 5420 5422 5425 5428 5432 5435 5438 5443 5449 5455 5460 5464 5468 5473 5479 5484 5490 5495 5499 5504 5507 5510 5514 5517 5520 5523 5525 5527 5527 5528 5528 5527 5526
5411 5410 5410 5411 5411 5412 5414 5417 5421 5425 5428 5432 5437 5442 5447 5453 5457 5462 5467 5472 5478 5483 5488 5492 5496 5500 5503 5507 5510 5512 5515 5517 5518 5519 5520 5520 5519 5518
5405 5404 5405 5404 5405 5406 5408 5411 5415 5419 5422 5426 5431 5436 5441 5447 5452 5457 5462 5467 5473 5478 5483 5486 5490 5494 5497 5500 5503 5506 5508 5510 5510 5511 5512 5512 5511 5510
5399 5399 5399 5399 5400 5401 5403 5407 5410 5414 5417 5421 5426 5432 5438 5443 5448 5453 5458 5463 5468 5473 5477 5481 5485 5488 5491 5494 5497 5499 5501 5502 5504 5505 5505 5505 5504 5504
5394 5394 5395 5395 5396 5398 5400 5403 5406 5410 5414 5418 5424 5429 5435 5440 5445 5450 5454 5459 5463 5468 5472 5476 5480 5483 5486 5488 5491 5493 5495 5496 5497 5498 5499 5499 5499 5498
5391 5391 5392 5393 5394 5396 5398 5401 5404 5408 5412 5417 5422 5428 5433 5438 5442 5447 5451 5456 5460 5465 5468 5472 5475 5478 5480 5482 5485 5487 5489 5491 5492 5493 5493 5494 5494 5493
5390 5390 5391 5392 5394 5395 5397 5400 5403 5407 5411 5416 5421 5426 5431 5436 5441 5445 5449 5453 5457 5461 5465 5468 5471 5473 5476 5478 5480 5483 5485 5486 5487 5488 5489 5489 5489 5489
5390 5390 5391 5392 5394 5395 5397 5400 5403 5407 5411 5415 5420 5425 5430 5435 5439 5443 5447 5451 5454 5457 5461 5464 5467 5469 5472 5474 5477 5479 5481 5482 5484 5484 5485 5485 5486 5485
5390 5390 5391 5393 5394 5396 5398 5401 5404 5408 5412 5416 5421 5425 5429 5434 5437 5441 5444 5448 5451 5454 5457 5460 5463 5466 5469 5472 5474 5476 5478 5479 5480 5481 5482 5482 5482 5482
5390 5391 5392 5394 5395 5397 5399 5402 5405 5409 5413 5417 5421 5425 5429 5432 5436 5439 5442 5445 5448 5451 5454 5457 5460 5464 5467 5470 5472 5474 5475 5476 5477 5478 5479 5479 5478 5478
5391 5392 5393 5395 5396 5399 5401 5404 5407 5410 5414 5417 5421 5425 5428 5432 5434 5437 5440 5442 5445 5449 5452 5455 5458 5462 5465 5467 5469 5471 5472 5473 5474 5475 5476 5476 5475 5474
5392 5393 5395 5396 5398 5400 5402 5405 5408 5411 5414 5418 5421 5425 5428 5431 5433 5436 5438 5441 5444 5448 5451 5454 5457 5460 5463 5465 5467 5468 5470 5471 5472 5472 5473 5473 5473 5472
5392 5394 5396 5398 5399 5401 5404 5406 5409 5412 5415 5418 5421 5425 5428 5431 5433 5436 5438 5441 5445 5448 5450 5453 5456 5458 5461 5463 5465 5466 5468 5469 5470 5470 5471 5471 5471 5471
Wind_Speed
54 54 53 52 52 53 54 55 55 54 52 51 52 53 55 56 56 57 58 58 58 58 57 56 56 55 54 53 52 51 51 51 51 50 49 49 47 45
53 53 53 53 53 54 55 55 54 54 52 50 50 50 53 53 53 55 55 56 57 56 55 55 54 53 53 52 52 51 50 50 51 50 48 47 46 46
53 53 53 53 53 53 53 53 54 52 51 49 49 49 50 51 51 51 52 53 54 54 53 52 52 51 51 50 50 50 50 50 48 46 46 45 45 45
53 53 52 53 53 52 52 51 52 51 51 49 48 47 47 48 50 49 49 49 50 50 49 49 49 48 48 48 49 48 47 47 46 45 45 44 43 44
52 52 51 51 50 50 51 50 49 49 49 48 46 45 44 44 45 46 46 46 46 46 45 45 45 45 46 46 46 46 45 44 43 43 43 42 42 42
50 50 49 49 48 49 49 48 47 47 46 45 44 44 42 41 41 42 42 42 42 43 42 42 41 42 43 43 43 43 43 41 40 40 41 41 41 41
47 47 46 46 47 47 47 45 45 44 43 43 42 42 41 40 39 39 40 39 40 41 41 41 40 40 40 39 39 40 40 39 38 38 38 40 40 40
42 42 42 43 43 42 43 43 42 42 42 40 40 39 38 38 38 37 37 37 37 38 39 38 37 37 36 36 37 38 37 37 36 37 37 38 38 39
39 38 38 38 38 38 37 38 37 37 38 39 38 37 36 36 37 36 35 35 35 35 34 33 33 33 33 33 34 35 35 35 34 35 35 36 37 38
35 34 34 33 33 33 33 32 32 32 34 36 35 34 34 34 33 32 33 33 33 32 31 31 31 32 33 33 33 33 34 34 34 33 34 35 36 37
31 30 30 29 29 30 30 28 28 28 30 31 31 31 31 32 32 30 30 32 31 29 28 29 29 30 30 31 32 33 33 31 30 30 32 32 33 34
26 25 25 24 24 25 25 24 23 23 25 26 28 29 28 29 30 28 27 27 28 27 26 27 27 27 28 28 30 31 30 29 28 28 29 30 30 31
23 21 21 21 21 20 20 21 21 21 23 24 24 25 26 26 26 25 25 25 25 25 25 25 24 24 25 25 27 28 29 28 28 27 28 28 28 27
20 19 18 18 17 17 17 18 19 19 19 20 21 23 24 23 23 23 24 23 23 23 24 24 23 22 22 24 25 26 27 28 27 26 26 25 24 23
17 15 14 13 13 14 14 15 16 16 17 18 20 21 21 21 22 22 22 21 20 21 22 22 21 21 21 22 23 24 25 25 24 23 23 21 20 19
13 11 10 10 10 11 12 13 13 14 15 17 18 19 19 19 20 19 19 19 18 18 19 20 19 19 18 19 19 19 20 20 20 20 19 18 17 16
10 8 7 7 8 9 10 12 13 13 14 16 17 17 17 17 17 16 17 17 16 17 18 18 18 18 17 16 16 16 17 17 17 17 16 16 15 15
7 7 7 7 6 7 9 11 13 13 13 14 16 17 17 15 15 15 16 15 14 14 15 16 16 15 14 13 13 13 13 14 14 14 13 13 14 15
6 6 6 5 5 6 8 10 13 13 14 15 16 15 14 13 13 13 12 12 12 12 13 14 14 13 12 11 11 11 12 12 12 12 12 12 12 13
5 5 5 5 5 6 8 11 12 13 14 15 14 13 12 12 12 11 10 10 10 11 12 13 12 11 11 10 10 10 10 10 10 10 10 11 12 12
5 6 5 5 6 6 8 10 12 13 13 13 13 12 12 11 10 9 9 9 9 10 12 12 12 11 10 9 8 9 8 8 7 8 9 10 10 10
6 6 6 6 6 6 8 9 11 12 13 12 11 12 12 10 10 10 9 9 9 9 10 12 12 11 10 8 6 6 6 6 6 6 6 7 7 7
6 7 6 7 7 7 8 9 10 11 12 11 12 12 11 10 10 10 10 10 9 9 9 10 10 10 9 7 5 4 4 5 4 3 3 4 3 3
Wind_Direction
277 275 273 272 270 269 268 267 266 264 261 259 259 258 257 257 257 257 258 258 257 258 258 258 258 258 259 260 261 262 265 268 270 272 272 275 277 280
277 274 272 271 270 269 269 268 266 265 262 258 258 258 257 257 257 258 259 258 257 257 257 257 257 257 257 258 259 261 264 266 268 271 272 274 275 278
277 274 272 271 270 270 268 267 264 264 263 258 257 257 258 257 257 258 258 257 256 256 256 256 256 256 256 256 258 259 261 265 268 270 272 273 276 278
277 274 272 271 270 270 268 267 263 263 263 260 257 257 257 257 256 256 257 256 255 255 254 255 255 255 255 256 256 258 260 262 265 269 273 273 275 278
279 275 273 271 270 270 268 266 264 262 261 260 258 256 257 256 256 254 255 255 255 253 253 253 253 253 253 255 256 256 259 262 265 268 270 272 276 278
279 276 274 271 270 270 268 266 263 260 259 258 257 255 255 255 254 253 253 252 252 251 249 250 252 253 253 254 254 255 257 261 265 267 269 272 275 278
279 275 273 271 269 267 265 264 262 258 256 256 255 254 252 253 252 252 250 249 249 247 247 249 250 252 252 253 253 254 256 259 262 266 269 272 275 278
280 276 273 270 267 268 266 263 261 257 254 254 253 252 249 249 249 249 248 245 245 245 246 247 248 249 250 252 252 254 255 258 262 267 268 270 273 278
283 279 275 270 268 268 265 260 258 256 252 251 250 247 245 244 244 245 245 242 243 244 245 244 246 249 248 249 252 253 256 261 265 266 268 270 274 278
285 282 277 271 269 267 264 259 255 253 247 246 246 243 243 240 241 242 242 242 240 239 241 244 246 248 248 249 250 253 256 260 263 263 268 271 274 278
285 280 274 271 269 266 262 256 253 250 245 243 241 239 239 239 239 239 238 237 236 236 240 243 244 246 247 248 250 252 254 259 262 264 268 273 277 279
285 278 274 271 270 264 259 254 250 248 241 238 236 236 236 238 238 237 237 234 233 235 238 241 245 245 246 247 248 249 253 255 259 263 268 275 278 280
284 278 275 270 267 258 253 248 244 242 237 235 234 232 231 232 233 233 230 229 231 234 236 240 243 245 247 246 247 249 254 257 260 264 269 275 278 282
285 279 271 265 260 253 247 239 237 237 232 228 224 224 225 223 224 224 222 223 228 231 232 235 239 243 247 248 249 253 255 257 261 266 270 275 278 280
286 275 268 262 257 246 236 230 228 226 221 218 214 212 213 215 216 217 219 222 225 227 229 232 236 241 245 249 251 255 257 258 259 265 268 273 278 282
284 274 263 257 248 232 222 218 217 213 207 204 203 205 210 212 214 217 219 222 224 226 228 230 235 240 246 247 249 251 253 256 258 262 266 272 275 279
283 272 255 246 238 229 219 214 209 201 197 197 198 201 203 206 212 215 216 218 224 229 231 234 238 241 242 241 241 245 250 253 256 260 265 268 272 278
277 263 249 241 236 216 205 202 197 193 193 192 192 196 200 207 211 212 213 217 225 230 232 233 234 236 232 229 232 241 248 250 252 256 263 267 272 278
262 245 230 223 212 196 194 190 185 185 186 185 188 193 198 204 207 206 210 216 219 222 225 223 223 225 221 223 230 238 247 248 253 257 262 271 279 285
237 215 204 197 189 183 183 179 179 180 181 182 185 189 195 201 203 205 209 216 215 216 216 212 210 207 210 222 235 241 243 249 255 259 267 278 284 287
206 198 189 185 177 174 174 175 176 176 177 179 183 187 189 192 196 197 201 199 196 200 203 201 200 203 210 222 233 235 236 244 259 266 274 283 286 287
188 184 180 177 175 172 171 172 174 176 177 180 183 183 182 184 188 189 185 179 178 184 191 197 200 203 207 215 222 227 239 247 261 267 279 285 285 284
182 178 177 177 180 180 173 173 175 176 178 179 177 173 173 175 175 175 174 172 173 178 183 189 199 203 202 205 213 223 235 236 242 255 272 287 290 298